TimePDT,TemperatureF,Dew PointF,Humidity,Sea Level PressureIn,VisibilityMPH,Wind Direction,Wind SpeedMPH,Gust SpeedMPH,PrecipitationIn,Events,Conditions,WindDirDegrees,DateUTC
12:56 AM,63.0,33.1,33,29.95,10.0,SSW,8.1,-,N/A,,Clear,210,2013-04-26 07:56:00
1:56 AM,59.0,30.9,35,29.97,10.0,Calm,Calm,-,N/A,,Clear,0,2013-04-26 08:56:00
2:56 AM,54.0,28.9,38,29.99,10.0,Calm,Calm,-,N/A,,Clear,0,2013-04-26 09:56:00
3:56 AM,54.0,28.9,38,30.00,10.0,South,4.6,-,N/A,,Clear,180,2013-04-26 10:56:00
4:56 AM,53.1,30.9,43,30.01,10.0,SSE,6.9,-,N/A,,Clear,150,2013-04-26 11:56:00
5:56 AM,53.1,33.1,47,30.04,10.0,South,5.8,-,N/A,,Clear,180,2013-04-26 12:56:00
6:56 AM,55.0,32.0,42,30.07,10.0,Calm,Calm,-,N/A,,Clear,0,2013-04-26 13:56:00
7:56 AM,61.0,33.1,35,30.09,10.0,Calm,Calm,-,N/A,,Clear,0,2013-04-26 14:56:00
8:56 AM,64.9,33.1,31,30.10,10.0,Calm,Calm,-,N/A,,Clear,0,2013-04-26 15:56:00
9:56 AM,72.0,33.1,24,30.10,10.0,East,3.5,-,N/A,,Clear,100,2013-04-26 16:56:00
10:56 AM,80.1,25.0,13,30.09,10.0,East,4.6,-,N/A,,Clear,100,2013-04-26 17:56:00
11:56 AM,82.9,19.0,9,30.07,10.0,Variable,4.6,-,N/A,,Clear,0,2013-04-26 18:56:00
12:56 PM,86.0,16.0,7,30.05,10.0,ESE,9.2,17.3,N/A,,Clear,120,2013-04-26 19:56:00
1:56 PM,87.1,10.9,6,30.05,10.0,East,11.5,17.3,N/A,,Clear,90,2013-04-26 20:56:00
2:56 PM,87.1,12.0,6,30.04,10.0,Variable,5.8,-,N/A,,Clear,0,2013-04-26 21:56:00
3:56 PM,89.1,12.0,6,30.01,10.0,Variable,3.5,-,N/A,,Clear,0,2013-04-26 22:56:00
4:56 PM,88.0,10.9,6,30.00,10.0,East,5.8,-,N/A,,Clear,100,2013-04-26 23:56:00
5:56 PM,87.1,10.0,6,30.00,10.0,ENE,9.2,-,N/A,,Clear,70,2013-04-27 00:56:00
6:56 PM,84.9,10.0,6,30.00,10.0,ESE,5.8,-,N/A,,Clear,110,2013-04-27 01:56:00
7:56 PM,79.0,33.1,19,30.02,10.0,WSW,5.8,-,N/A,,Clear,250,2013-04-27 02:56:00
8:56 PM,75.9,34.0,22,30.04,10.0,WSW,5.8,-,N/A,,Clear,240,2013-04-27 03:56:00
9:56 PM,70.0,32.0,25,30.06,10.0,South,5.8,-,N/A,,Clear,180,2013-04-27 04:56:00
10:56 PM,69.1,33.1,26,30.06,10.0,ESE,3.5,-,N/A,,Clear,120,2013-04-27 05:56:00
11:56 PM,64.9,33.1,31,30.07,10.0,South,5.8,-,N/A,,Clear,180,2013-04-27 06:56:00